| time (UTC) | temp F | wind direction | speed MPH | gust MPH | rain 1hr in | rain 24hr in | rain mn in | humidity % | barometer mb |
| 20260906141052 | 80 | 159 | 0.0 | 4.0 | 0.00 | 0.00 | 0.00 | 89 | 1013.6 |
| 20260906140555 | 79 | 0 | 0.0 | 4.0 | 0.00 | 0.00 | 0.00 | 89 | 1013.6 |
| 20260906140108 | 79 | 0 | 0.0 | 4.0 | 0.00 | 0.00 | 0.00 | 90 | 1013.5 |
| 20260906135556 | 79 | 175 | 0.0 | 5.0 | 0.00 | 0.00 | 0.00 | 90 | 1013.6 |
| 20260906135053 | 79 | 175 | 1.0 | 5.0 | 0.00 | 0.00 | 0.00 | 90 | 1013.5 |
| 20260906134555 | 78 | 173 | 0.0 | 0.0 | 0.00 | 0.00 | 0.00 | 91 | 1013.5 |
| 20260906134052 | 78 | 0 | 0.0 | 0.0 | 0.00 | 0.00 | 0.00 | 91 | 1013.4 |
| 20260906133552 | 78 | 0 | 0.0 | 0.0 | 0.00 | 0.00 | 0.00 | 91 | 1013.2 |
| 20260906133133 | 78 | 0 | 0.0 | 0.0 | 0.00 | 0.00 | 0.00 | 91 | 1013.2 |
| 20260906132555 | 78 | 0 | 0.0 | 0.0 | 0.00 | 0.00 | 0.00 | 91 | 1013.1 |
| 20260906132052 | 77 | 0 | 0.0 | 0.0 | 0.00 | 0.00 | 0.00 | 91 | 1013.1 |
| 20260906131611 | 77 | 0 | 0.0 | 0.0 | 0.00 | 0.00 | 0.00 | 91 | 1013.1 |
| 20260906131052 | 77 | 0 | 0.0 | 0.0 | 0.00 | 0.00 | 0.00 | 91 | 1013.0 |
| 20260906130552 | 77 | 0 | 0.0 | 0.0 | 0.00 | 0.00 | 0.00 | 91 | 1013.0 |
| 20260906130115 | 77 | 0 | 0.0 | 0.0 | 0.00 | 0.00 | 0.00 | 90 | 1012.9 |
| 20260906125555 | 77 | 0 | 0.0 | 0.0 | 0.00 | 0.00 | 0.00 | 90 | 1012.9 |
| 20260906125051 | 77 | 0 | 0.0 | 0.0 | 0.00 | 0.00 | 0.00 | 90 | 1012.8 |
| 20260906124602 | 77 | 0 | 0.0 | 0.0 | 0.00 | 0.00 | 0.00 | 90 | 1012.7 |
| 20260906124052 | 77 | 0 | 0.0 | 0.0 | 0.00 | 0.00 | 0.00 | 90 | 1012.6 |
| 20260906123552 | 77 | 0 | 0.0 | 0.0 | 0.00 | 0.00 | 0.00 | 90 | 1012.4 |
| 20260906123104 | 77 | 0 | 0.0 | 0.0 | 0.00 | 0.00 | 0.00 | 90 | 1012.6 |
| 20260906122553 | 77 | 0 | 0.0 | 3.0 | 0.00 | 0.00 | 0.00 | 90 | 1012.4 |
| 20260906122053 | 77 | 0 | 0.0 | 3.0 | 0.00 | 0.00 | 0.00 | 89 | 1012.4 |
| 20260906121601 | 77 | 185 | 1.0 | 3.0 | 0.00 | 0.00 | 0.00 | 89 | 1012.4 |
| 20260906121052 | 77 | 186 | 0.0 | 3.0 | 0.00 | 0.00 | 0.00 | 89 | 1012.3 |
| 20260906120553 | 77 | 186 | 0.0 | 4.0 | 0.00 | 0.00 | 0.00 | 89 | 1012.3 |
| 20260906120105 | 77 | 0 | 0.0 | 4.0 | 0.00 | 0.00 | 0.00 | 89 | 1012.2 |
| 20260906115555 | 77 | 185 | 0.0 | 3.0 | 0.00 | 0.00 | 0.00 | 89 | 1012.2 |
| 20260906115054 | 77 | 190 | 0.0 | 2.0 | 0.00 | 0.00 | 0.00 | 89 | 1012.3 |
| 20260906114601 | 77 | 0 | 0.0 | 3.0 | 0.00 | 0.00 | 0.00 | 89 | 1012.2 |
| 20260906114051 | 77 | 0 | 1.0 | 5.0 | 0.00 | 0.00 | 0.00 | 89 | 1012.0 |
| 20260906113552 | 77 | 193 | 0.0 | 5.0 | 0.00 | 0.00 | 0.00 | 89 | 1012.0 |
| 20260906113104 | 77 | 194 | 0.0 | 5.0 | 0.00 | 0.00 | 0.00 | 88 | 1012.1 |
| 20260906112551 | 77 | 194 | 2.0 | 5.0 | 0.00 | 0.00 | 0.00 | 88 | 1012.0 |
| 20260906112054 | 77 | 188 | 1.0 | 4.0 | 0.00 | 0.00 | 0.00 | 88 | 1011.8 |
| 20260906111617 | 77 | 190 | 0.0 | 4.0 | 0.00 | 0.00 | 0.00 | 88 | 1011.8 |
| 20260906111052 | 77 | 0 | 2.0 | 6.0 | 0.00 | 0.00 | 0.00 | 88 | 1011.8 |
| 20260906110552 | 77 | 0 | 0.0 | 6.0 | 0.00 | 0.00 | 0.00 | 88 | 1011.7 |
| 20260906110058 | 77 | 211 | 0.0 | 4.0 | 0.00 | 0.00 | 0.00 | 88 | 1011.8 |
| 20260906105553 | 77 | 0 | 0.0 | 1.0 | 0.00 | 0.00 | 0.00 | 87 | 1011.4 |
| 20260906105055 | 77 | 0 | 0.0 | 0.0 | 0.00 | 0.00 | 0.00 | 87 | 1011.2 |
| 20260906104557 | 77 | 0 | 0.0 | 0.0 | 0.00 | 0.00 | 0.00 | 87 | 1011.1 |
| 20260906104051 | 77 | 0 | 0.0 | 0.0 | 0.00 | 0.00 | 0.00 | 87 | 1011.2 |
| 20260906103551 | 77 | 0 | 0.0 | 0.0 | 0.00 | 0.00 | 0.00 | 87 | 1011.2 |
| 20260906103104 | 77 | 0 | 0.0 | 0.0 | 0.00 | 0.00 | 0.00 | 87 | 1011.3 |
| 20260906102552 | 77 | 0 | 0.0 | 0.0 | 0.00 | 0.00 | 0.00 | 87 | 1011.2 |
| 20260906102142 | 77 | 0 | 0.0 | 0.0 | 0.00 | 0.00 | 0.00 | 87 | 1011.2 |
| 20260906101557 | 77 | 0 | 0.0 | 0.0 | 0.00 | 0.00 | 0.00 | 87 | 1011.2 |
| 20260906101052 | 77 | 0 | 0.0 | 0.0 | 0.00 | 0.00 | 0.00 | 87 | 1011.1 |
| 20260906100552 | 77 | 0 | 0.0 | 0.0 | 0.00 | 0.00 | 0.00 | 87 | 1011.1 |
| 20260906100058 | 77 | 0 | 0.0 | 0.0 | 0.00 | 0.00 | 0.00 | 87 | 1011.1 |
| 20260906095556 | 77 | 0 | 0.0 | 0.0 | 0.00 | 0.00 | 0.00 | 86 | 1011.1 |
| 20260906095052 | 77 | 0 | 0.0 | 0.0 | 0.00 | 0.00 | 0.00 | 86 | 1011.1 |
| 20260906094556 | 77 | 0 | 0.0 | 0.0 | 0.00 | 0.00 | 0.00 | 86 | 1011.0 |
| 20260906094051 | 78 | 0 | 0.0 | 0.0 | 0.00 | 0.00 | 0.00 | 86 | 1010.9 |
| 20260906093552 | 78 | 0 | 0.0 | 0.0 | 0.00 | 0.00 | 0.00 | 86 | 1011.0 |
| 20260906093103 | 78 | 0 | 0.0 | 0.0 | 0.00 | 0.00 | 0.00 | 86 | 1011.1 |
| 20260906092552 | 78 | 0 | 0.0 | 1.0 | 0.00 | 0.00 | 0.00 | 86 | 1011.1 |
| 20260906092053 | 78 | 0 | 0.0 | 2.0 | 0.00 | 0.00 | 0.00 | 86 | 1011.1 |
| 20260906091600 | 78 | 0 | 0.0 | 2.0 | 0.00 | 0.00 | 0.00 | 85 | 1011.1 |
| 20260906091052 | 78 | 0 | 0.0 | 2.0 | 0.00 | 0.00 | 0.00 | 85 | 1011.2 |
| 20260906090551 | 78 | 0 | 0.0 | 2.0 | 0.00 | 0.00 | 0.00 | 85 | 1011.3 |
| 20260906090100 | 78 | 0 | 0.0 | 2.0 | 0.00 | 0.00 | 0.00 | 85 | 1011.2 |
| 20260906085556 | 78 | 0 | 0.0 | 2.0 | 0.00 | 0.00 | 0.00 | 85 | 1011.2 |
| 20260906085052 | 78 | 0 | 0.0 | 2.0 | 0.00 | 0.00 | 0.00 | 85 | 1011.2 |
| 20260906084601 | 78 | 0 | 0.0 | 2.0 | 0.00 | 0.00 | 0.00 | 85 | 1011.3 |
| 20260906084052 | 78 | 219 | 1.0 | 2.0 | 0.00 | 0.00 | 0.00 | 85 | 1011.4 |
| 20260906083554 | 79 | 219 | 0.0 | 2.0 | 0.00 | 0.00 | 0.00 | 85 | 1011.3 |
| 20260906083100 | 79 | 0 | 0.0 | 4.0 | 0.00 | 0.00 | 0.00 | 84 | 1011.4 |
| 20260906082553 | 79 | 219 | 0.0 | 4.0 | 0.00 | 0.00 | 0.00 | 84 | 1011.5 |
| 20260906082052 | 79 | 0 | 1.0 | 4.0 | 0.00 | 0.00 | 0.00 | 84 | 1011.5 |
| 20260906081557 | 79 | 221 | 1.0 | 5.0 | 0.00 | 0.00 | 0.00 | 84 | 1011.5 |
| 20260906081052 | 79 | 206 | 2.0 | 6.0 | 0.00 | 0.00 | 0.00 | 84 | 1011.7 |
| 20260906080551 | 79 | 205 | 2.0 | 6.0 | 0.00 | 0.00 | 0.00 | 84 | 1011.7 |
| 20260906080103 | 79 | 193 | 1.0 | 5.0 | 0.00 | 0.00 | 0.00 | 83 | 1011.7 |
| 20260906075551 | 79 | 189 | 2.0 | 6.0 | 0.00 | 0.00 | 0.00 | 83 | 1011.6 |
| 20260906075052 | 79 | 0 | 2.0 | 8.0 | 0.00 | 0.00 | 0.00 | 83 | 1011.6 |
| 20260906074608 | 79 | 203 | 3.0 | 8.0 | 0.00 | 0.00 | 0.00 | 82 | 1011.6 |
| 20260906074051 | 79 | 200 | 1.0 | 6.0 | 0.00 | 0.00 | 0.00 | 82 | 1011.7 |
| 20260906073551 | 79 | 200 | 0.0 | 7.0 | 0.00 | 0.00 | 0.00 | 82 | 1011.8 |
| 20260906073102 | 79 | 200 | 3.0 | 7.0 | 0.00 | 0.00 | 0.00 | 82 | 1011.9 |
| 20260906072552 | 80 | 229 | 4.0 | 7.0 | 0.00 | 0.00 | 0.00 | 82 | 1012.1 |
| 20260906072052 | 80 | 231 | 2.0 | 6.0 | 0.00 | 0.00 | 0.00 | 82 | 1012.2 |
| 20260906071559 | 80 | 221 | 3.0 | 6.0 | 0.00 | 0.00 | 0.00 | 82 | 1012.2 |
| 20260906071053 | 80 | 202 | 2.0 | 9.0 | 0.00 | 0.00 | 0.00 | 82 | 1012.4 |
| 20260906070552 | 80 | 209 | 4.0 | 9.0 | 0.00 | 0.00 | 0.00 | 81 | 1012.6 |
| 20260906070103 | 80 | 221 | 3.0 | 8.0 | 0.00 | 0.00 | 0.00 | 81 | 1012.5 |
| 20260906065553 | 80 | 190 | 2.0 | 9.0 | 0.00 | 0.00 | 0.00 | 80 | 1012.5 |
| 20260906065052 | 80 | 216 | 3.0 | 9.0 | 0.00 | 0.00 | 0.00 | 80 | 1012.5 |
| 20260906064557 | 80 | 210 | 3.0 | 7.0 | 0.00 | 0.00 | 0.00 | 79 | 1012.6 |
| 20260906064052 | 80 | 205 | 4.0 | 7.0 | 0.00 | 0.00 | 0.00 | 79 | 1012.4 |
| 20260906063551 | 80 | 171 | 3.0 | 7.0 | 0.00 | 0.00 | 0.00 | 79 | 1012.4 |
| 20260906063057 | 80 | 184 | 2.0 | 10.0 | 0.00 | 0.00 | 0.00 | 78 | 1012.6 |
| 20260906062552 | 80 | 222 | 3.0 | 10.0 | 0.00 | 0.00 | 0.00 | 78 | 1012.5 |
| 20260906062051 | 81 | 200 | 3.0 | 8.0 | 0.00 | 0.00 | 0.00 | 78 | 1012.5 |
| 20260906061604 | 81 | 204 | 3.0 | 7.0 | 0.00 | 0.00 | 0.00 | 77 | 1012.7 |
| 20260906061053 | 81 | 213 | 2.0 | 7.0 | 0.00 | 0.00 | 0.00 | 77 | 1012.7 |
| 20260906060553 | 81 | 188 | 0.0 | 6.0 | 0.00 | 0.00 | 0.00 | 76 | 1012.8 |
| 20260906060105 | 81 | 174 | 2.0 | 6.0 | 0.00 | 0.00 | 0.00 | 76 | 1012.7 |
| 20260906055552 | 81 | 192 | 3.0 | 6.0 | 0.00 | 0.00 | 0.00 | 76 | 1012.7 |
| 20260906055053 | 81 | 182 | 1.0 | 5.0 | 0.00 | 0.00 | 0.00 | 75 | 1012.6 |
| 20260906054605 | 81 | 183 | 1.0 | 5.0 | 0.00 | 0.00 | 0.00 | 75 | 1012.7 |
| 20260906054052 | 81 | 0 | 0.0 | 4.0 | 0.00 | 0.00 | 0.00 | 74 | 1012.8 |
| 20260906053551 | 82 | 186 | 2.0 | 6.0 | 0.00 | 0.00 | 0.00 | 74 | 1012.8 |
| 20260906053103 | 82 | 177 | 1.0 | 6.0 | 0.00 | 0.00 | 0.00 | 74 | 1012.7 |
| 20260906052552 | 82 | 177 | 1.0 | 6.0 | 0.00 | 0.00 | 0.00 | 73 | 1012.7 |
| 20260906052050 | 82 | 196 | 3.0 | 6.0 | 0.00 | 0.00 | 0.00 | 73 | 1012.8 |
| 20260906051612 | 82 | 200 | 2.0 | 6.0 | 0.00 | 0.00 | 0.00 | 73 | 1012.7 |
| 20260906051049 | 82 | 152 | 1.0 | 7.0 | 0.00 | 0.00 | 0.00 | 72 | 1012.8 |
| 20260906050550 | 82 | 166 | 1.0 | 7.0 | 0.00 | 0.00 | 0.00 | 72 | 1012.8 |
| 20260906050104 | 82 | 0 | 2.0 | 7.0 | 0.00 | 0.00 | 0.00 | 71 | 1012.9 |
| 20260906045550 | 83 | 197 | 1.0 | 7.0 | 0.00 | 0.00 | 0.00 | 71 | 1013.0 |
| 20260906045053 | 83 | 192 | 1.0 | 7.0 | 0.00 | 0.00 | 0.00 | 70 | 1012.9 |
| 20260906044607 | 83 | 213 | 2.0 | 8.0 | 0.00 | 0.00 | 0.00 | 70 | 1012.9 |
| 20260906044049 | 83 | 178 | 2.0 | 8.0 | 0.00 | 0.00 | 0.00 | 70 | 1012.8 |
| 20260906043551 | 83 | 0 | 2.0 | 8.0 | 0.00 | 0.00 | 0.00 | 70 | 1012.9 |
| 20260906043100 | 83 | 202 | 2.0 | 9.0 | 0.00 | 0.00 | 0.00 | 69 | 1012.9 |
| 20260906042550 | 83 | 211 | 2.0 | 10.0 | 0.00 | 0.00 | 0.00 | 69 | 1012.9 |
| 20260906042049 | 83 | 0 | 3.0 | 10.0 | 0.00 | 0.00 | 0.00 | 69 | 1012.9 |
| 20260906041601 | 84 | 146 | 3.0 | 13.0 | 0.00 | 0.00 | 0.00 | 69 | 1012.9 |
| 20260906041053 | 84 | 227 | 4.0 | 13.0 | 0.00 | 0.00 | 0.00 | 69 | 1012.9 |
| 20260906040555 | 84 | 105 | 3.0 | 12.0 | 0.00 | 0.00 | 0.00 | 69 | 1013.0 |
| 20260906040139 | 84 | 188 | 3.0 | 10.0 | 0.00 | 0.00 | 0.00 | 69 | 1013.0 |
| 20260906035553 | 84 | 202 | 3.0 | 10.0 | 0.00 | 0.00 | 0.00 | 68 | 1012.9 |
| 20260906035053 | 84 | 200 | 3.0 | 10.0 | 0.00 | 0.00 | 0.00 | 68 | 1012.7 |
| 20260906034611 | 85 | 131 | 3.0 | 10.0 | 0.00 | 0.00 | 0.00 | 68 | 1012.7 |
| 20260906034057 | 85 | 202 | 3.0 | 8.0 | 0.00 | 0.00 | 0.00 | 68 | 1012.5 |
| 20260906033554 | 85 | 139 | 3.0 | 10.0 | 0.00 | 0.00 | 0.00 | 68 | 1012.4 |
| 20260906033108 | 85 | 190 | 3.0 | 10.0 | 0.00 | 0.00 | 0.00 | 67 | 1012.4 |
| 20260906032554 | 85 | 188 | 2.0 | 10.0 | 0.00 | 0.00 | 0.00 | 67 | 1012.4 |
| 20260906032054 | 85 | 222 | 3.0 | 10.0 | 0.00 | 0.00 | 0.00 | 67 | 1012.4 |
| 20260906031605 | 86 | 161 | 3.0 | 10.0 | 0.00 | 0.00 | 0.00 | 67 | 1012.2 |
| 20260906031054 | 86 | 165 | 3.0 | 12.0 | 0.00 | 0.00 | 0.00 | 67 | 1011.9 |
| 20260906030554 | 86 | 215 | 4.0 | 12.0 | 0.00 | 0.00 | 0.00 | 66 | 1011.9 |
| 20260906030104 | 86 | 159 | 3.0 | 11.0 | 0.00 | 0.00 | 0.00 | 66 | 1011.7 |
| 20260906025554 | 87 | 126 | 3.0 | 14.0 | 0.00 | 0.00 | 0.00 | 65 | 1011.6 |
| 20260906025055 | 87 | 190 | 4.0 | 14.0 | 0.00 | 0.00 | 0.00 | 65 | 1011.5 |
| 20260906024613 | 87 | 125 | 2.0 | 13.0 | 0.00 | 0.00 | 0.00 | 64 | 1011.4 |
| 20260906024052 | 87 | 154 | 4.0 | 13.0 | 0.00 | 0.00 | 0.00 | 64 | 1011.2 |
| 20260906023558 | 88 | 150 | 2.0 | 11.0 | 0.00 | 0.00 | 0.00 | 63 | 1011.1 |
| 20260906023107 | 88 | 149 | 5.0 | 14.0 | 0.00 | 0.00 | 0.00 | 62 | 1011.0 |
| 20260906022554 | 88 | 159 | 4.0 | 14.0 | 0.00 | 0.00 | 0.00 | 61 | 1011.0 |
| 20260906022054 | 89 | 232 | 4.0 | 12.0 | 0.00 | 0.00 | 0.00 | 60 | 1010.8 |
| 20260906021612 | 89 | 117 | 6.0 | 12.0 | 0.00 | 0.00 | 0.00 | 58 | 1010.6 |
| 20260906021053 | 89 | 131 | 2.0 | 13.0 | 0.00 | 0.00 | 0.00 | 57 | 1010.6 |
| 20260906020553 | 90 | 103 | 3.0 | 13.0 | 0.00 | 0.00 | 0.00 | 56 | 1010.6 |
| 20260906020106 | 90 | 116 | 5.0 | 12.0 | 0.00 | 0.00 | 0.00 | 55 | 1010.4 |
| 20260906015551 | 90 | 175 | 1.0 | 10.0 | 0.00 | 0.00 | 0.00 | 54 | 1010.3 |
| 20260906015052 | 90 | 0 | 4.0 | 12.0 | 0.00 | 0.00 | 0.00 | 54 | 1010.3 |
| 20260906014604 | 90 | 143 | 4.0 | 12.0 | 0.00 | 0.00 | 0.00 | 53 | 1010.2 |
| 20260906014052 | 90 | 139 | 4.0 | 10.0 | 0.00 | 0.00 | 0.00 | 53 | 1010.1 |
| 20260906013552 | 91 | 160 | 3.0 | 13.0 | 0.00 | 0.00 | 0.00 | 53 | 1010.1 |
| 20260906013122 | 91 | 98 | 3.0 | 13.0 | 0.00 | 0.00 | 0.00 | 52 | 1010.1 |
| 20260906012551 | 91 | 128 | 3.0 | 9.0 | 0.00 | 0.00 | 0.00 | 50 | 1009.9 |
| 20260906012054 | 92 | 126 | 1.0 | 3.0 | 0.00 | 0.00 | 0.00 | 49 | 1009.9 |
| 20260906011610 | 92 | 115 | 2.0 | 3.0 | 0.00 | 0.00 | 0.00 | 48 | 1009.8 |
| 20260906011055 | 92 | 116 | 0.0 | 2.0 | 0.00 | 0.00 | 0.00 | 48 | 1009.8 |
| 20260906010554 | 93 | 117 | 0.0 | 1.0 | 0.00 | 0.00 | 0.00 | 48 | 1009.6 |
| 20260906010104 | 93 | 0 | 0.0 | 1.0 | 0.00 | 0.00 | 0.00 | 48 | 1009.6 |
| 20260906005552 | 94 | 0 | 0.0 | 1.0 | 0.00 | 0.00 | 0.00 | 48 | 1009.6 |
| 20260906005054 | 94 | 0 | 0.0 | 1.0 | 0.00 | 0.00 | 0.00 | 48 | 1009.5 |
| 20260906004604 | 94 | 0 | 0.0 | 1.0 | 0.00 | 0.00 | 0.00 | 48 | 1009.5 |
| 20260906004052 | 95 | 0 | 0.0 | 1.0 | 0.00 | 0.00 | 0.00 | 46 | 1009.5 |
| 20260906003552 | 95 | 0 | 0.0 | 1.0 | 0.00 | 0.00 | 0.00 | 46 | 1009.6 |
| 20260906003104 | 95 | 0 | 0.0 | 2.0 | 0.00 | 0.00 | 0.00 | 46 | 1009.6 |
| 20260906002554 | 95 | 0 | 0.0 | 2.0 | 0.00 | 0.00 | 0.00 | 46 | 1009.5 |
| 20260906002054 | 95 | 117 | 0.0 | 2.0 | 0.00 | 0.00 | 0.00 | 45 | 1009.6 |
| 20260906001610 | 96 | 119 | 0.0 | 3.0 | 0.00 | 0.00 | 0.00 | 45 | 1009.6 |
| 20260906001057 | 96 | 0 | 0.0 | 5.0 | 0.00 | 0.00 | 0.00 | 44 | 1009.6 |
| 20260906000559 | 96 | 119 | 0.0 | 5.0 | 0.00 | 0.00 | 0.00 | 45 | 1009.6 |
| 20260905235551 | 96 | 0 | 1.0 | 8.0 | 0.00 | 0.00 | 0.00 | 44 | 1009.6 |
| 20260905235056 | 96 | 105 | 2.0 | 8.0 | 0.00 | 0.00 | 0.00 | 44 | 1009.7 |
| 20260905234559 | 97 | 119 | 3.0 | 8.0 | 0.00 | 0.00 | 0.00 | 43 | 1009.7 |
| 20260905234052 | 97 | 97 | 2.0 | 10.0 | 0.00 | 0.00 | 0.00 | 44 | 1009.7 |
| 20260905233552 | 97 | 0 | 2.0 | 11.0 | 0.00 | 0.00 | 0.00 | 43 | 1009.5 |
| 20260905233103 | 97 | 130 | 3.0 | 11.0 | 0.00 | 0.00 | 0.00 | 42 | 1009.7 |
| 20260905232551 | 98 | 108 | 2.0 | 9.0 | 0.00 | 0.00 | 0.00 | 42 | 1009.6 |
| 20260905232052 | 98 | 142 | 4.0 | 9.0 | 0.00 | 0.00 | 0.00 | 42 | 1009.5 |
| 20260905231608 | 98 | 136 | 4.0 | 9.0 | 0.00 | 0.00 | 0.00 | 42 | 1009.5 |
| 20260905231054 | 99 | 0 | 1.0 | 5.0 | 0.00 | 0.00 | 0.00 | 41 | 1009.5 |
| 20260905230554 | 98 | 113 | 1.0 | 7.0 | 0.00 | 0.00 | 0.00 | 40 | 1009.4 |
| 20260905230108 | 98 | 163 | 1.0 | 7.0 | 0.00 | 0.00 | 0.00 | 41 | 1009.4 |
| 20260905225552 | 98 | 182 | 1.0 | 5.0 | 0.00 | 0.00 | 0.00 | 41 | 1009.4 |
| 20260905225052 | 98 | 157 | 0.0 | 5.0 | 0.00 | 0.00 | 0.00 | 42 | 1009.5 |
| 20260905224617 | 98 | 157 | 2.0 | 8.0 | 0.00 | 0.00 | 0.00 | 42 | 1009.6 |
| 20260905224052 | 98 | 0 | 2.0 | 8.0 | 0.00 | 0.00 | 0.00 | 41 | 1009.7 |
| 20260905223552 | 98 | 106 | 3.0 | 8.0 | 0.00 | 0.00 | 0.00 | 41 | 1009.7 |
| 20260905223116 | 98 | 113 | 2.0 | 7.0 | 0.00 | 0.00 | 0.00 | 42 | 1009.6 |
| 20260905222552 | 98 | 57 | 2.0 | 6.0 | 0.00 | 0.00 | 0.00 | 42 | 1009.6 |
| 20260905222051 | 98 | 138 | 0.0 | 9.0 | 0.00 | 0.00 | 0.00 | 44 | 1009.7 |
| 20260905221603 | 98 | 94 | 1.0 | 9.0 | 0.00 | 0.00 | 0.00 | 43 | 1009.8 |
| 20260905221053 | 98 | 74 | 3.0 | 7.0 | 0.00 | 0.00 | 0.00 | 42 | 1009.8 |
| 20260905220554 | 99 | 117 | 0.0 | 9.0 | 0.00 | 0.00 | 0.00 | 42 | 1009.9 |
| 20260905220105 | 99 | 0 | 1.0 | 9.0 | 0.00 | 0.00 | 0.00 | 43 | 1009.9 |
| 20260905215555 | 99 | 128 | 1.0 | 9.0 | 0.00 | 0.00 | 0.00 | 43 | 1009.9 |
| 20260905215055 | 99 | 113 | 3.0 | 12.0 | 0.00 | 0.00 | 0.00 | 44 | 1010.0 |
| 20260905214605 | 99 | 126 | 2.0 | 12.0 | 0.00 | 0.00 | 0.00 | 43 | 1009.9 |
| 20260905214054 | 100 | 123 | 2.0 | 11.0 | 0.00 | 0.00 | 0.00 | 42 | 1009.9 |
| 20260905213552 | 100 | 154 | 2.0 | 7.0 | 0.00 | 0.00 | 0.00 | 43 | 1009.9 |
| 20260905213105 | 99 | 80 | 1.0 | 6.0 | 0.00 | 0.00 | 0.00 | 43 | 1009.9 |
| 20260905212552 | 99 | 128 | 1.0 | 5.0 | 0.00 | 0.00 | 0.00 | 43 | 1009.9 |
| 20260905212051 | 99 | 123 | 2.0 | 8.0 | 0.00 | 0.00 | 0.00 | 43 | 1010.1 |
| 20260905211605 | 99 | 200 | 2.0 | 10.0 | 0.00 | 0.00 | 0.00 | 43 | 1010.0 |
| 20260905211051 | 98 | 69 | 4.0 | 10.0 | 0.00 | 0.00 | 0.00 | 44 | 1010.1 |
| 20260905210553 | 98 | 193 | 3.0 | 9.0 | 0.00 | 0.00 | 0.00 | 44 | 1010.2 |
| 20260905210107 | 99 | 227 | 3.0 | 9.0 | 0.00 | 0.00 | 0.00 | 41 | 1010.1 |
| 20260905205554 | 98 | 109 | 1.0 | 9.0 | 0.00 | 0.00 | 0.00 | 44 | 1010.3 |
| 20260905205052 | 98 | 121 | 3.0 | 11.0 | 0.00 | 0.00 | 0.00 | 43 | 1010.3 |
| 20260905204555 | 98 | 135 | 4.0 | 11.0 | 0.00 | 0.00 | 0.00 | 45 | 1010.4 |
| 20260905204052 | 99 | 161 | 2.0 | 7.0 | 0.00 | 0.00 | 0.00 | 44 | 1010.5 |
| 20260905203552 | 98 | 0 | 3.0 | 9.0 | 0.00 | 0.00 | 0.00 | 44 | 1010.6 |
| 20260905203103 | 98 | 108 | 3.0 | 9.0 | 0.00 | 0.00 | 0.00 | 45 | 1010.8 |
| 20260905202551 | 97 | 219 | 1.0 | 10.0 | 0.00 | 0.00 | 0.00 | 46 | 1010.9 |
| 20260905202052 | 97 | 290 | 5.0 | 10.0 | 0.00 | 0.00 | 0.00 | 45 | 1010.9 |
| 20260905201612 | 98 | 211 | 3.0 | 10.0 | 0.00 | 0.00 | 0.00 | 46 | 1011.1 |
| 20260905201051 | 98 | 209 | 3.0 | 11.0 | 0.00 | 0.00 | 0.00 | 47 | 1011.1 |
| 20260905200553 | 97 | 71 | 2.0 | 11.0 | 0.00 | 0.00 | 0.00 | 47 | 1011.3 |
| 20260905200105 | 97 | 159 | 4.0 | 11.0 | 0.00 | 0.00 | 0.00 | 47 | 1011.4 |
| 20260905195554 | 97 | 197 | 2.0 | 8.0 | 0.00 | 0.00 | 0.00 | 48 | 1011.5 |
| 20260905195054 | 97 | 196 | 2.0 | 8.0 | 0.00 | 0.00 | 0.00 | 48 | 1011.6 |
| 20260905194557 | 96 | 0 | 3.0 | 8.0 | 0.00 | 0.00 | 0.00 | 47 | 1011.6 |
| 20260905194052 | 96 | 0 | 3.0 | 10.0 | 0.00 | 0.00 | 0.00 | 47 | 1011.8 |
| 20260905193551 | 96 | 198 | 3.0 | 10.0 | 0.00 | 0.00 | 0.00 | 49 | 1011.8 |
| 20260905193107 | 95 | 144 | 1.0 | 10.0 | 0.00 | 0.00 | 0.00 | 49 | 1011.9 |
| 20260905192552 | 95 | 107 | 3.0 | 11.0 | 0.00 | 0.00 | 0.00 | 50 | 1012.0 |
| 20260905192051 | 95 | 205 | 3.0 | 11.0 | 0.00 | 0.00 | 0.00 | 50 | 1012.0 |
| 20260905191608 | 95 | 199 | 4.0 | 11.0 | 0.00 | 0.00 | 0.00 | 51 | 1012.1 |
| 20260905191055 | 95 | 160 | 4.0 | 11.0 | 0.00 | 0.00 | 0.00 | 53 | 1012.2 |
| 20260905190554 | 95 | 286 | 4.0 | 10.0 | 0.00 | 0.00 | 0.00 | 53 | 1012.2 |
| 20260905190106 | 95 | 135 | 3.0 | 10.0 | 0.00 | 0.00 | 0.00 | 54 | 1012.4 |
| 20260905185552 | 95 | 219 | 2.0 | 11.0 | 0.00 | 0.00 | 0.00 | 53 | 1012.4 |
| 20260905185052 | 95 | 103 | 3.0 | 11.0 | 0.00 | 0.00 | 0.00 | 54 | 1012.6 |
| 20260905184611 | 95 | 116 | 2.0 | 8.0 | 0.00 | 0.00 | 0.00 | 55 | 1012.7 |
| 20260905184052 | 95 | 158 | 2.0 | 11.0 | 0.00 | 0.00 | 0.00 | 55 | 1012.8 |
| 20260905183552 | 95 | 165 | 3.0 | 11.0 | 0.00 | 0.00 | 0.00 | 54 | 1012.8 |
| 20260905183105 | 94 | 121 | 0.0 | 7.0 | 0.00 | 0.00 | 0.00 | 54 | 1013.0 |
| 20260905182553 | 94 | 159 | 2.0 | 10.0 | 0.00 | 0.00 | 0.00 | 56 | 1013.1 |
| 20260905182052 | 94 | 143 | 3.0 | 10.0 | 0.00 | 0.00 | 0.00 | 58 | 1013.1 |
| 20260905181604 | 93 | 100 | 2.0 | 9.0 | 0.00 | 0.00 | 0.00 | 59 | 1013.2 |
| 20260905181052 | 93 | 130 | 2.0 | 9.0 | 0.00 | 0.00 | 0.00 | 58 | 1013.2 |
| 20260905180554 | 93 | 290 | 1.0 | 8.0 | 0.00 | 0.00 | 0.00 | 58 | 1013.3 |
| 20260905180108 | 92 | 225 | 3.0 | 8.0 | 0.00 | 0.00 | 0.00 | 58 | 1013.4 |
| 20260905175551 | 92 | 72 | 1.0 | 6.0 | 0.00 | 0.00 | 0.00 | 60 | 1013.5 |
| 20260905175054 | 91 | 137 | 2.0 | 8.0 | 0.00 | 0.00 | 0.00 | 62 | 1013.5 |
| 20260905174606 | 91 | 105 | 1.0 | 8.0 | 0.00 | 0.00 | 0.00 | 64 | 1013.5 |
| 20260905174053 | 90 | 113 | 3.0 | 8.0 | 0.00 | 0.00 | 0.00 | 63 | 1013.6 |
| 20260905173552 | 90 | 198 | 2.0 | 6.0 | 0.00 | 0.00 | 0.00 | 62 | 1013.7 |
| 20260905173130 | 89 | 130 | 1.0 | 6.0 | 0.00 | 0.00 | 0.00 | 67 | 1013.6 |
| 20260905172552 | 89 | 128 | 1.0 | 7.0 | 0.00 | 0.00 | 0.00 | 69 | 1013.7 |
| 20260905172052 | 89 | 171 | 1.0 | 7.0 | 0.00 | 0.00 | 0.00 | 69 | 1013.8 |
| 20260905171558 | 89 | 182 | 1.0 | 9.0 | 0.00 | 0.00 | 0.00 | 68 | 1013.9 |
| 20260905171052 | 89 | 158 | 3.0 | 9.0 | 0.00 | 0.00 | 0.00 | 68 | 1014.0 |
| 20260905170552 | 89 | 111 | 1.0 | 9.0 | 0.00 | 0.00 | 0.00 | 70 | 1014.0 |
| 20260905170115 | 89 | 160 | 3.0 | 9.0 | 0.00 | 0.00 | 0.00 | 71 | 1014.1 |
| 20260905165551 | 88 | 0 | 2.0 | 6.0 | 0.00 | 0.00 | 0.00 | 71 | 1014.0 |
| 20260905165051 | 87 | 121 | 2.0 | 5.0 | 0.00 | 0.00 | 0.00 | 73 | 1014.1 |
| 20260905164609 | 87 | 141 | 2.0 | 6.0 | 0.00 | 0.00 | 0.00 | 74 | 1014.2 |
| 20260905164051 | 86 | 0 | 1.0 | 7.0 | 0.00 | 0.00 | 0.00 | 75 | 1014.2 |
| 20260905163551 | 86 | 149 | 4.0 | 8.0 | 0.00 | 0.00 | 0.00 | 75 | 1014.2 |
| 20260905163117 | 85 | 220 | 2.0 | 8.0 | 0.00 | 0.00 | 0.00 | 76 | 1014.2 |
| 20260905162552 | 85 | 175 | 2.0 | 8.0 | 0.00 | 0.00 | 0.00 | 77 | 1014.2 |
| 20260905162052 | 85 | 164 | 2.0 | 6.0 | 0.00 | 0.00 | 0.00 | 77 | 1014.2 |
| 20260905161616 | 85 | 200 | 1.0 | 8.0 | 0.00 | 0.00 | 0.00 | 78 | 1014.3 |
| 20260905161052 | 84 | 146 | 2.0 | 8.0 | 0.00 | 0.00 | 0.00 | 78 | 1014.3 |
| 20260905160551 | 84 | 173 | 2.0 | 8.0 | 0.00 | 0.00 | 0.00 | 79 | 1014.3 |
| 20260905160106 | 84 | 148 | 2.0 | 7.0 | 0.00 | 0.00 | 0.00 | 79 | 1014.3 |
| 20260905155554 | 84 | 205 | 2.0 | 7.0 | 0.00 | 0.00 | 0.00 | 80 | 1014.3 |
| 20260905155051 | 84 | 107 | 2.0 | 9.0 | 0.00 | 0.00 | 0.00 | 80 | 1014.3 |
| 20260905154616 | 84 | 123 | 0.0 | 9.0 | 0.00 | 0.00 | 0.00 | 81 | 1014.3 |
| 20260905154051 | 83 | 142 | 2.0 | 6.0 | 0.00 | 0.00 | 0.00 | 81 | 1014.2 |
| 20260905153552 | 83 | 178 | 2.0 | 6.0 | 0.00 | 0.00 | 0.00 | 81 | 1014.2 |
| 20260905153105 | 83 | 132 | 2.0 | 7.0 | 0.00 | 0.00 | 0.00 | 82 | 1014.1 |
| 20260905152552 | 83 | 121 | 2.0 | 7.0 | 0.00 | 0.00 | 0.00 | 82 | 1014.0 |
| 20260905152051 | 83 | 227 | 1.0 | 7.0 | 0.00 | 0.00 | 0.00 | 82 | 1014.0 |
| 20260905151603 | 83 | 149 | 3.0 | 7.0 | 0.00 | 0.00 | 0.00 | 82 | 1014.1 |
| 20260905151053 | 83 | 219 | 3.0 | 7.0 | 0.00 | 0.00 | 0.00 | 82 | 1014.0 |
| 20260905150553 | 83 | 205 | 2.0 | 9.0 | 0.00 | 0.00 | 0.00 | 82 | 1014.0 |
| 20260905150109 | 83 | 192 | 3.0 | 9.0 | 0.00 | 0.00 | 0.00 | 84 | 1014.0 |
| 20260905145551 | 82 | 150 | 3.0 | 9.0 | 0.00 | 0.00 | 0.00 | 85 | 1014.0 |
| 20260905145052 | 82 | 150 | 2.0 | 9.0 | 0.00 | 0.00 | 0.00 | 88 | 1014.0 |
| 20260905144602 | 81 | 224 | 0.0 | 6.0 | 0.00 | 0.00 | 0.00 | 89 | 1013.9 |
| 20260905144051 | 81 | 0 | 2.0 | 8.0 | 0.00 | 0.00 | 0.00 | 90 | 1013.8 |
| 20260905143552 | 80 | 159 | 2.0 | 8.0 | 0.00 | 0.00 | 0.00 | 91 | 1013.9 |
| 20260905143109 | 80 | 167 | 0.0 | 7.0 | 0.00 | 0.00 | 0.00 | 92 | 1013.9 |
| 20260905142555 | 80 | 168 | 2.0 | 7.0 | 0.00 | 0.00 | 0.00 | 92 | 1013.9 |
| 20260905142053 | 79 | 118 | 2.0 | 6.0 | 0.00 | 0.00 | 0.00 | 92 | 1013.9 |
| 20260905141604 | 79 | 167 | 1.0 | 6.0 | 0.00 | 0.00 | 0.00 | 93 | 1013.9 |